TimeEST,TemperatureF,Dew PointF,Humidity,Sea Level PressureIn,VisibilityMPH,Wind Direction,Wind SpeedMPH,Gust SpeedMPH,PrecipitationIn,Events,Conditions,WindDirDegrees,DateUTC
12:15 AM,44.6,42.8,93,30.32,10.0,NNE,10.4,-,N/A,,Clear,20,2012-11-17 05:15:00
12:35 AM,44.6,42.8,93,30.33,10.0,NNE,9.2,-,N/A,,Clear,20,2012-11-17 05:35:00
12:55 AM,44.6,42.8,93,30.33,10.0,North,8.1,-,N/A,,Clear,10,2012-11-17 05:55:00
1:15 AM,44.6,42.8,93,30.33,10.0,North,6.9,-,N/A,,Clear,10,2012-11-17 06:15:00
1:35 AM,44.6,42.8,93,30.32,10.0,North,10.4,-,N/A,,Clear,10,2012-11-17 06:35:00
1:55 AM,44.6,41.0,87,30.32,10.0,North,11.5,-,N/A,,Clear,10,2012-11-17 06:55:00
2:15 AM,44.6,39.2,81,30.31,10.0,North,13.8,-,N/A,,Clear,360,2012-11-17 07:15:00
2:35 AM,44.6,39.2,81,30.31,10.0,North,12.7,-,N/A,,Clear,10,2012-11-17 07:35:00
2:55 AM,44.6,39.2,81,30.32,10.0,NNE,11.5,-,N/A,,Clear,20,2012-11-17 07:55:00
3:15 AM,44.6,39.2,81,30.32,10.0,North,10.4,-,N/A,,Clear,10,2012-11-17 08:15:00
3:35 AM,42.8,37.4,81,30.31,10.0,North,11.5,-,N/A,,Clear,360,2012-11-17 08:35:00
3:55 AM,42.8,39.2,87,30.30,10.0,North,15.0,-,N/A,,Clear,10,2012-11-17 08:55:00
4:15 AM,42.8,37.4,81,30.29,10.0,North,15.0,-,N/A,,Clear,10,2012-11-17 09:15:00
4:35 AM,42.8,39.2,87,30.30,10.0,North,13.8,-,N/A,,Clear,10,2012-11-17 09:35:00
4:55 AM,42.8,39.2,87,30.30,10.0,North,11.5,-,N/A,,Clear,10,2012-11-17 09:55:00
5:15 AM,42.8,39.2,87,30.30,10.0,North,15.0,-,N/A,,Clear,10,2012-11-17 10:15:00
5:35 AM,42.8,39.2,87,30.31,10.0,North,12.7,-,N/A,,Clear,10,2012-11-17 10:35:00
5:53 AM,41.0,37.4,87,30.33,10.0,NNE,15.0,-,N/A,,Clear,30,2012-11-17 10:53:00
6:47 AM,41.0,37.4,87,30.33,10.0,NNE,13.8,-,N/A,,Partly Cloudy,20,2012-11-17 11:47:00
7:47 AM,41.0,39.2,93,30.34,10.0,NNE,15.0,-,N/A,,Mostly Cloudy,20,2012-11-17 12:47:00
8:45 AM,44.6,39.2,81,30.36,10.0,NNE,17.3,-,N/A,,Mostly Cloudy,20,2012-11-17 13:45:00
9:47 AM,46.4,42.8,87,30.36,10.0,NNE,13.8,-,N/A,,Overcast,30,2012-11-17 14:47:00
10:45 AM,51.8,44.6,76,30.36,10.0,NE,11.5,17.3,N/A,,Overcast,40,2012-11-17 15:45:00
11:50 AM,53.6,44.6,72,30.34,10.0,North,13.8,-,N/A,,Mostly Cloudy,10,2012-11-17 16:50:00
12:50 PM,55.4,44.6,67,30.34,10.0,NNE,17.3,-,N/A,,Mostly Cloudy,30,2012-11-17 17:50:00
1:50 PM,55.4,46.4,72,30.33,10.0,NNE,17.3,-,N/A,,Overcast,20,2012-11-17 18:50:00
2:47 PM,55.4,46.4,72,30.32,10.0,NNE,16.1,-,N/A,,Overcast,20,2012-11-17 19:47:00
3:50 PM,55.4,46.4,72,30.32,10.0,NNE,15.0,-,N/A,,Overcast,20,2012-11-17 20:50:00
5:45 PM,55.4,48.2,77,30.33,10.0,NNE,16.1,-,N/A,,Overcast,30,2012-11-17 22:45:00
6:45 PM,55.4,46.4,72,30.33,10.0,NNE,17.3,-,N/A,,Overcast,20,2012-11-17 23:45:00
7:45 PM,55.4,46.4,72,30.33,10.0,NNE,17.3,-,N/A,,Overcast,30,2012-11-18 00:45:00
8:45 PM,55.4,48.2,77,30.34,10.0,NE,16.1,-,N/A,,Overcast,40,2012-11-18 01:45:00
9:50 PM,53.6,46.4,77,30.33,10.0,NNE,16.1,-,N/A,,Overcast,20,2012-11-18 02:50:00
11:15 PM,53.6,46.4,77,30.34,10.0,NNE,11.5,-,N/A,,Overcast,20,2012-11-18 04:15:00
11:35 PM,53.6,46.4,77,30.33,10.0,North,12.7,-,N/A,,Overcast,10,2012-11-18 04:35:00
11:55 PM,53.6,46.4,77,30.32,10.0,North,16.1,-,N/A,,Overcast,360,2012-11-18 04:55:00